AAL07M LEZL-EDDF

Flight info

Callsign AAL07M
Flight time 2h 24m
Altitude 36000
Route HIJ DCT PARKA DCT TLD DCT SIE DCT BASIM DCT GASMO DCT VABAR T430 LPA DCT GOSVI DCT TOPTU DCT TOU DCT GAI DCT MEN DCT NINUN DCT LATAM DCT ETREK DCT LTP DCT SOPLO DCT OMASI DCT KINNI DCT SOSAL DCT KORED DCT BERSU N871 DITON/N0476F370 DCT LADOL/N0480F380 T163 EMPAX EMPAX5B
Aircraft B77W/H-SDE1E2E3FGHIJ2J3J4J5M1RWXY/LB1D1

Departure

Time 2026-05-07 10:37
Airport Seville Airport (LEZL)

Arrival

Time 2026-05-07 13:01
Airport Frankfurt Main Airport (EDDF)
Time Latitude Longitude Altitude Speed Heading
2026-05-07 10:06 37.42232 -5.89583 99 ft 0 kts 82°
2026-05-07 10:30 37.42234 -5.89567 99 ft 5 kts 82°
2026-05-07 10:30 37.42239 -5.89518 99 ft 6 kts 85°
2026-05-07 10:31 37.42224 -5.89472 103 ft 6 kts 126°
2026-05-07 10:31 37.42196 -5.89436 104 ft 6 kts 136°
2026-05-07 10:31 37.42159 -5.89441 105 ft 6 kts 214°
2026-05-07 10:31 37.42128 -5.89476 104 ft 6 kts 222°
2026-05-07 10:32 37.42090 -5.89493 104 ft 6 kts 161°
2026-05-07 10:32 37.42058 -5.89454 104 ft 6 kts 134°
2026-05-07 10:32 37.42025 -5.89410 107 ft 7 kts 134°
2026-05-07 10:32 37.41991 -5.89365 106 ft 7 kts 126°
2026-05-07 10:33 37.41983 -5.89287 104 ft 14 kts 89°
2026-05-07 10:33 37.41983 -5.89123 105 ft 21 kts 90°
2026-05-07 10:33 37.41983 -5.89003 106 ft 21 kts 90°
2026-05-07 10:33 37.41983 -5.88821 107 ft 21 kts 88°
2026-05-07 10:34 37.41985 -5.88640 109 ft 21 kts 90°
2026-05-07 10:34 37.41985 -5.88459 109 ft 21 kts 90°
2026-05-07 10:34 37.41986 -5.88220 111 ft 21 kts 90°
2026-05-07 10:34 37.41987 -5.88038 109 ft 21 kts 90°
2026-05-07 10:35 37.41987 -5.87916 109 ft 21 kts 90°
2026-05-07 10:35 37.41988 -5.87735 110 ft 21 kts 90°
2026-05-07 10:35 37.41988 -5.87554 113 ft 21 kts 89°
2026-05-07 10:35 37.41988 -5.87399 118 ft 15 kts 94°
2026-05-07 10:36 37.41951 -5.87307 117 ft 11 kts 150°
2026-05-07 10:36 37.41879 -5.87333 117 ft 11 kts 223°
2026-05-07 10:36 37.41834 -5.87415 121 ft 11 kts 237°
2026-05-07 10:36 37.41801 -5.87501 118 ft 12 kts 259°
2026-05-07 10:37 37.41799 -5.87807 116 ft 69 kts 270°
2026-05-07 10:37 37.41796 -5.88742 109 ft 142 kts 269°
2026-05-07 10:37 37.41798 -5.90220 173 ft 187 kts 267°
2026-05-07 10:37 37.41801 -5.91877 800 ft 192 kts 269°
2026-05-07 10:38 37.42166 -5.93528 1418 ft 207 kts 303°
2026-05-07 10:38 37.43227 -5.94771 2034 ft 209 kts 320°
2026-05-07 10:38 37.44376 -5.95895 2695 ft 212 kts 320°
2026-05-07 10:38 37.45545 -5.97094 3242 ft 220 kts 318°
2026-05-07 10:39 37.46733 -5.98359 3835 ft 230 kts 317°
2026-05-07 10:39 37.47983 -5.99717 4283 ft 246 kts 317°
2026-05-07 10:39 37.49321 -6.01205 4671 ft 266 kts 316°
2026-05-07 10:39 37.50709 -6.02813 5332 ft 276 kts 315°
2026-05-07 10:40 37.52129 -6.04479 6135 ft 280 kts 315°
2026-05-07 10:40 37.53587 -6.06116 6897 ft 282 kts 324°
2026-05-07 10:40 37.55443 -6.06935 7552 ft 290 kts 359°
2026-05-07 10:40 37.57383 -6.06364 8363 ft 291 kts 31°
2026-05-07 10:41 37.58956 -6.04790 9061 ft 291 kts 41°
2026-05-07 10:41 37.60521 -6.03138 9769 ft 296 kts 39°
2026-05-07 10:41 37.62144 -6.01484 10351 ft 306 kts 39°
2026-05-07 10:41 37.63878 -5.99726 10559 ft 333 kts 39°
2026-05-07 10:42 37.65729 -5.97848 10745 ft 359 kts 39°
2026-05-07 10:42 37.67720 -5.95822 11262 ft 373 kts 39°
2026-05-07 10:42 37.69746 -5.93757 12261 ft 375 kts 39°
2026-05-07 10:42 37.71793 -5.91670 13198 ft 382 kts 39°
2026-05-07 10:43 37.73871 -5.89550 14085 ft 388 kts 38°
2026-05-07 10:43 37.75992 -5.87385 14880 ft 395 kts 38°
2026-05-07 10:43 37.78145 -5.85186 15768 ft 399 kts 38°
2026-05-07 10:43 37.80319 -5.82968 16686 ft 404 kts 38°
2026-05-07 10:44 37.82521 -5.80718 17527 ft 410 kts 38°
2026-05-07 10:44 37.84756 -5.78432 18338 ft 416 kts 38°
2026-05-07 10:44 37.87019 -5.76114 19109 ft 420 kts 38°
2026-05-07 10:44 37.89297 -5.73777 19903 ft 424 kts 37°
2026-05-07 10:45 37.91604 -5.71410 20669 ft 429 kts 37°
2026-05-07 10:45 37.93941 -5.69015 21325 ft 436 kts 37°
2026-05-07 10:45 37.96313 -5.66579 21964 ft 442 kts 38°
2026-05-07 10:45 37.98716 -5.64106 22695 ft 447 kts 37°
2026-05-07 10:46 38.01140 -5.61613 23443 ft 451 kts 37°
2026-05-07 10:46 38.03585 -5.59096 24041 ft 454 kts 37°
2026-05-07 10:46 38.06049 -5.56555 24644 ft 458 kts 37°
2026-05-07 10:46 38.08526 -5.53998 25280 ft 460 kts 37°
2026-05-07 10:47 38.11017 -5.51423 25872 ft 463 kts 36°
2026-05-07 10:47 38.13523 -5.48831 26416 ft 467 kts 36°
2026-05-07 10:47 38.16050 -5.46215 26960 ft 471 kts 36°
2026-05-07 10:47 38.18565 -5.43611 27495 ft 474 kts 36°
2026-05-07 10:48 38.21129 -5.40953 28054 ft 477 kts 35°
2026-05-07 10:48 38.23711 -5.38273 28558 ft 480 kts 35°
2026-05-07 10:48 38.26305 -5.35579 29053 ft 484 kts 35°
2026-05-07 10:48 38.28920 -5.32861 29540 ft 487 kts 36°
2026-05-07 10:49 38.31572 -5.30104 29676 ft 497 kts 37°
2026-05-07 10:49 38.34270 -5.27293 29961 ft 503 kts 37°
2026-05-07 10:49 38.36983 -5.24461 30347 ft 505 kts 37°
2026-05-07 10:49 38.39701 -5.21620 30721 ft 506 kts 36°
2026-05-07 10:50 38.42435 -5.18762 31080 ft 508 kts 36°
2026-05-07 10:50 38.45171 -5.15900 31448 ft 509 kts 36°
2026-05-07 10:50 38.47981 -5.13191 31754 ft 505 kts 27°
2026-05-07 10:50 38.51151 -5.11360 32058 ft 498 kts 12°
2026-05-07 10:51 38.54506 -5.10472 32500 ft 489 kts
2026-05-07 10:51 38.57874 -5.10469 32836 ft 481 kts 351°
2026-05-07 10:51 38.61217 -5.10895 33087 ft 484 kts 350°
2026-05-07 10:51 38.64572 -5.11315 33485 ft 483 kts 350°
2026-05-07 10:52 38.67911 -5.11704 33956 ft 481 kts 351°
2026-05-07 10:52 38.71237 -5.12065 34346 ft 479 kts 351°
2026-05-07 10:52 38.74510 -5.12405 34664 ft 479 kts 351°
2026-05-07 10:52 38.77837 -5.12742 34953 ft 479 kts 351°
2026-05-07 10:53 38.81170 -5.13076 35213 ft 481 kts 353°
2026-05-07 10:53 38.84507 -5.13383 35478 ft 481 kts 353°
2026-05-07 10:53 38.87843 -5.13708 35793 ft 480 kts 353°
2026-05-07 10:53 38.91191 -5.14057 35868 ft 485 kts 353°
2026-05-07 10:54 38.97989 -5.14308 35908 ft 496 kts
2026-05-07 10:54 39.01355 -5.13291 35925 ft 499 kts 17°
2026-05-07 10:54 39.04543 -5.11493 35908 ft 501 kts 29°
2026-05-07 10:55 39.10353 -5.06603 35904 ft 498 kts 32°
2026-05-07 10:55 39.16142 -5.01648 35929 ft 500 kts 30°
2026-05-07 10:56 39.22013 -4.96789 35923 ft 503 kts 30°
2026-05-07 10:56 39.22980 -4.95988 35921 ft 504 kts 30°
2026-05-07 10:58 39.25401 -4.93974 35922 ft 505 kts 31°
2026-05-07 10:58 39.31309 -4.88980 35922 ft 509 kts 31°
2026-05-07 10:59 39.37282 -4.83992 35926 ft 512 kts 31°
2026-05-07 10:59 39.39245 -4.82369 35928 ft 513 kts 31°
2026-05-07 11:00 39.39975 -4.81762 35927 ft 513 kts 31°
2026-05-07 11:01 39.45995 -4.76763 35923 ft 514 kts 31°
2026-05-07 11:01 39.52001 -4.71735 35935 ft 514 kts 31°
2026-05-07 11:02 39.57983 -4.66695 35924 ft 512 kts 32°
2026-05-07 11:02 39.63322 -4.62153 35914 ft 509 kts 35°
2026-05-07 11:03 39.68517 -4.55942 35911 ft 509 kts 46°
2026-05-07 11:03 39.73371 -4.49225 35924 ft 510 kts 46°
2026-05-07 11:04 39.78370 -4.42709 35922 ft 513 kts 44°
2026-05-07 11:04 39.83505 -4.36239 35921 ft 515 kts 44°
2026-05-07 11:05 39.88657 -4.29727 35919 ft 517 kts 44°
2026-05-07 11:05 39.93788 -4.23157 35914 ft 517 kts 45°
2026-05-07 11:06 39.98839 -4.16476 35928 ft 517 kts 46°
2026-05-07 11:06 40.03870 -4.09769 35921 ft 516 kts 46°
2026-05-07 11:07 40.08887 -4.03091 35926 ft 515 kts 45°
2026-05-07 11:07 40.13901 -3.96422 35921 ft 514 kts 45°
2026-05-07 11:08 40.18907 -3.89751 35920 ft 513 kts 46°
2026-05-07 11:08 40.23901 -3.83080 35929 ft 513 kts 46°
2026-05-07 11:09 40.28856 -3.76446 35924 ft 513 kts 46°
2026-05-07 11:09 40.33847 -3.69748 35943 ft 514 kts 46°
2026-05-07 11:10 40.38841 -3.63029 35943 ft 515 kts 46°
2026-05-07 11:10 40.43843 -3.56287 35949 ft 516 kts 46°
2026-05-07 11:11 40.48850 -3.49522 35945 ft 516 kts 46°
2026-05-07 11:11 40.53855 -3.42742 35921 ft 517 kts 47°
2026-05-07 11:12 40.58855 -3.35956 35934 ft 516 kts 47°
2026-05-07 11:12 40.63849 -3.29160 35945 ft 516 kts 47°
2026-05-07 11:13 40.68837 -3.22357 35946 ft 516 kts 47°
2026-05-07 11:13 40.73822 -3.15543 35947 ft 516 kts 47°
2026-05-07 11:14 40.78795 -3.08732 35949 ft 515 kts 47°
2026-05-07 11:14 40.83768 -3.01906 35942 ft 515 kts 47°
2026-05-07 11:15 40.88728 -2.95079 35966 ft 515 kts 47°
2026-05-07 11:15 40.93652 -2.88287 35953 ft 515 kts 47°
2026-05-07 11:16 40.98611 -2.81429 35960 ft 516 kts 47°
2026-05-07 11:16 41.03568 -2.74558 35953 ft 516 kts 47°
2026-05-07 11:17 41.08519 -2.67682 35955 ft 516 kts 47°
2026-05-07 11:17 41.13469 -2.60791 35956 ft 515 kts 47°
2026-05-07 11:18 41.18403 -2.53905 35956 ft 515 kts 47°
2026-05-07 11:18 41.23331 -2.47011 35956 ft 514 kts 47°
2026-05-07 11:19 41.28253 -2.40111 35956 ft 514 kts 48°
2026-05-07 11:19 41.33177 -2.33193 35962 ft 514 kts 48°
2026-05-07 11:20 41.38086 -2.26278 35951 ft 514 kts 48°
2026-05-07 11:20 41.42998 -2.19342 35961 ft 514 kts 48°
2026-05-07 11:21 41.47076 -2.13572 35958 ft 515 kts 48°
2026-05-07 11:21 41.52792 -2.05462 35956 ft 517 kts 48°
2026-05-07 11:22 41.57711 -1.98466 35964 ft 516 kts 48°
2026-05-07 11:22 41.61800 -1.92639 35961 ft 516 kts 48°
2026-05-07 11:23 41.66705 -1.85634 35949 ft 516 kts 48°
2026-05-07 11:23 41.71604 -1.78620 35960 ft 516 kts 48°
2026-05-07 11:24 41.76496 -1.71599 35962 ft 515 kts 48°
2026-05-07 11:24 41.81383 -1.64567 35960 ft 515 kts 48°
2026-05-07 11:25 41.86227 -1.57582 35959 ft 514 kts 48°
2026-05-07 11:25 41.91087 -1.50558 35950 ft 513 kts 48°
2026-05-07 11:26 41.95938 -1.43531 35962 ft 513 kts 48°
2026-05-07 11:26 42.00785 -1.36491 35977 ft 513 kts 48°
2026-05-07 11:27 42.05627 -1.29440 35971 ft 513 kts 48°
2026-05-07 11:27 42.10471 -1.22371 35966 ft 513 kts 48°
2026-05-07 11:28 42.15308 -1.15292 35963 ft 513 kts 48°
2026-05-07 11:28 42.20143 -1.08200 35967 ft 513 kts 48°
2026-05-07 11:29 42.24969 -1.01104 35967 ft 513 kts 48°
2026-05-07 11:29 42.29789 -0.94001 35965 ft 513 kts 48°
2026-05-07 11:30 42.34578 -0.86929 35965 ft 513 kts 48°
2026-05-07 11:30 42.39385 -0.79810 35970 ft 512 kts 48°
2026-05-07 11:31 42.44178 -0.72693 35964 ft 511 kts 48°
2026-05-07 11:31 42.48966 -0.65569 35962 ft 511 kts 48°
2026-05-07 11:32 42.56136 -0.54866 35967 ft 510 kts 48°
2026-05-07 11:33 42.60905 -0.47724 35964 ft 511 kts 48°
2026-05-07 11:33 42.65670 -0.40569 35977 ft 510 kts 48°
2026-05-07 11:34 42.70432 -0.33403 35972 ft 510 kts 48°
2026-05-07 11:34 42.75182 -0.26236 35976 ft 510 kts 48°
2026-05-07 11:35 42.79893 -0.19112 35970 ft 510 kts 49°
2026-05-07 11:35 42.84469 -0.11737 35965 ft 509 kts 51°
2026-05-07 11:36 42.88904 -0.04214 35965 ft 509 kts 52°
2026-05-07 11:36 42.93353 0.03316 35956 ft 509 kts 52°
2026-05-07 11:37 42.97818 0.10813 35967 ft 509 kts 51°
2026-05-07 11:37 43.02290 0.18300 35989 ft 509 kts 51°
2026-05-07 11:38 43.06759 0.25811 35975 ft 509 kts 51°
2026-05-07 11:38 43.11227 0.33348 35984 ft 510 kts 51°
2026-05-07 11:39 43.15689 0.40893 35969 ft 510 kts 51°
2026-05-07 11:39 43.20148 0.48452 35988 ft 510 kts 51°
2026-05-07 11:40 43.24611 0.56037 35997 ft 510 kts 51°
2026-05-07 11:40 43.29039 0.63582 35990 ft 511 kts 51°
2026-05-07 11:41 43.33489 0.71182 35992 ft 510 kts 52°
2026-05-07 11:41 43.37931 0.78791 35980 ft 510 kts 52°
2026-05-07 11:42 43.42371 0.86415 35991 ft 510 kts 52°
2026-05-07 11:42 43.46805 0.94050 36002 ft 511 kts 52°
2026-05-07 11:43 43.51237 1.01701 35995 ft 511 kts 52°
2026-05-07 11:43 43.55661 1.09358 35997 ft 511 kts 52°
2026-05-07 11:44 43.60082 1.17029 36002 ft 511 kts 52°
2026-05-07 11:44 43.64497 1.24713 36027 ft 511 kts 52°
2026-05-07 11:45 43.68908 1.32422 36026 ft 511 kts 52°
2026-05-07 11:45 43.73160 1.40306 36021 ft 512 kts 54°
2026-05-07 11:46 43.77347 1.48267 36017 ft 512 kts 54°
2026-05-07 11:46 43.81556 1.56225 36000 ft 512 kts 54°
2026-05-07 11:47 43.85782 1.64188 36014 ft 513 kts 54°
2026-05-07 11:47 43.89983 1.72123 36005 ft 514 kts 54°
2026-05-07 11:48 43.94207 1.80129 36006 ft 515 kts 54°
2026-05-07 11:48 43.98379 1.88212 36008 ft 515 kts 56°
2026-05-07 11:49 44.02437 1.96407 36008 ft 515 kts 56°
2026-05-07 11:49 44.06484 2.04624 36007 ft 515 kts 56°
2026-05-07 11:50 44.10546 2.12842 36003 ft 515 kts 56°
2026-05-07 11:50 44.14613 2.21069 36002 ft 515 kts 56°
2026-05-07 11:51 44.18677 2.29310 35991 ft 515 kts 56°
2026-05-07 11:51 44.22699 2.37492 36009 ft 515 kts 55°
2026-05-07 11:52 44.26743 2.45744 35995 ft 515 kts 56°
2026-05-07 11:52 44.30782 2.54011 36020 ft 515 kts 56°
2026-05-07 11:53 44.34820 2.62298 36021 ft 516 kts 56°
2026-05-07 11:53 44.38849 2.70591 36004 ft 516 kts 56°
2026-05-07 11:54 44.42874 2.78899 36014 ft 516 kts 56°
2026-05-07 11:54 44.46902 2.87237 35997 ft 517 kts 56°
2026-05-07 11:55 44.50930 2.95600 36000 ft 517 kts 56°
2026-05-07 11:55 44.54950 3.03972 35995 ft 518 kts 56°
2026-05-07 11:56 44.58940 3.12304 36000 ft 518 kts 55°
2026-05-07 11:56 44.62774 3.20872 35996 ft 518 kts 60°
2026-05-07 11:57 44.66294 3.29704 35995 ft 519 kts 60°
2026-05-07 11:57 44.69810 3.38568 35996 ft 519 kts 60°
2026-05-07 11:58 44.73351 3.47416 36000 ft 520 kts 60°
2026-05-07 11:58 44.76894 3.56275 35987 ft 520 kts 60°
2026-05-07 11:59 44.80416 3.65154 35995 ft 519 kts 60°
2026-05-07 11:59 44.83925 3.74048 35996 ft 519 kts 60°
2026-05-07 12:00 44.87427 3.82950 35978 ft 519 kts 60°
2026-05-07 12:00 44.90923 3.91867 35986 ft 519 kts 60°
2026-05-07 12:01 44.94416 4.00787 36006 ft 520 kts 60°
2026-05-07 12:01 44.97904 4.09737 35999 ft 521 kts 60°
2026-05-07 12:02 45.01392 4.18714 36005 ft 521 kts 60°
2026-05-07 12:02 45.04873 4.27698 35996 ft 522 kts 60°
2026-05-07 12:03 45.08360 4.36716 36007 ft 522 kts 60°
2026-05-07 12:03 45.11838 4.45739 36016 ft 522 kts 60°
2026-05-07 12:04 45.15312 4.54785 36007 ft 523 kts 60°
2026-05-07 12:04 45.18757 4.63782 36004 ft 523 kts 60°
2026-05-07 12:05 45.22216 4.72852 36010 ft 523 kts 60°
2026-05-07 12:05 45.25671 4.81947 36020 ft 524 kts 60°
2026-05-07 12:06 45.29120 4.91059 36035 ft 524 kts 60°
2026-05-07 12:06 45.32562 5.00180 36015 ft 523 kts 60°
2026-05-07 12:07 45.35998 5.09317 36017 ft 523 kts 60°
2026-05-07 12:07 45.39415 5.18432 36024 ft 522 kts 60°
2026-05-07 12:08 45.42827 5.27565 36020 ft 522 kts 60°
2026-05-07 12:08 45.46238 5.36697 36036 ft 522 kts 59°
2026-05-07 12:09 45.49592 5.43794 36022 ft 519 kts 49°
2026-05-07 12:09 45.54494 5.51273 36009 ft 514 kts 39°
2026-05-07 12:10 45.59860 5.57988 36007 ft 513 kts 38°
2026-05-07 12:10 45.65218 5.64732 36004 ft 513 kts 39°
2026-05-07 12:11 45.70531 5.71549 36012 ft 513 kts 39°
2026-05-07 12:11 45.75844 5.78379 36021 ft 512 kts 39°
2026-05-07 12:12 45.81151 5.85200 36021 ft 512 kts 39°
2026-05-07 12:12 45.86463 5.92049 36023 ft 513 kts 39°
2026-05-07 12:13 45.91722 5.98849 36023 ft 512 kts 39°
2026-05-07 12:13 45.97008 6.05704 36026 ft 512 kts 39°
2026-05-07 12:14 46.02292 6.12576 36047 ft 512 kts 39°
2026-05-07 12:14 46.07562 6.19449 36022 ft 511 kts 39°
2026-05-07 12:15 46.12745 6.26440 36018 ft 510 kts 41°
2026-05-07 12:15 46.17768 6.33664 36020 ft 509 kts 42°
2026-05-07 12:16 46.22779 6.40894 36022 ft 509 kts 42°
2026-05-07 12:16 46.27810 6.48094 36019 ft 508 kts 42°
2026-05-07 12:17 46.32836 6.55282 35998 ft 508 kts 42°
2026-05-07 12:17 46.37865 6.62492 36019 ft 509 kts 42°
2026-05-07 12:18 46.42891 6.69723 36005 ft 509 kts 42°
2026-05-07 12:18 46.47919 6.76983 36007 ft 510 kts 42°
2026-05-07 12:19 46.52939 6.84247 36002 ft 510 kts 42°
2026-05-07 12:19 46.57789 6.91760 36009 ft 511 kts 48°
2026-05-07 12:20 46.62247 6.99827 36010 ft 512 kts 49°
2026-05-07 12:20 46.66651 7.07888 36012 ft 512 kts 49°
2026-05-07 12:21 46.71107 7.15969 36016 ft 512 kts 49°
2026-05-07 12:21 46.75578 7.24063 36027 ft 512 kts 49°
2026-05-07 12:22 46.80039 7.32168 36017 ft 512 kts 49°
2026-05-07 12:22 46.84499 7.40297 36032 ft 512 kts 49°
2026-05-07 12:23 46.88944 7.48435 36018 ft 512 kts 50°
2026-05-07 12:23 46.93343 7.56530 36033 ft 511 kts 50°
2026-05-07 12:24 46.97758 7.64674 36022 ft 510 kts 50°
2026-05-07 12:24 47.02157 7.72814 36013 ft 509 kts 50°
2026-05-07 12:25 47.06549 7.80963 36022 ft 509 kts 50°
2026-05-07 12:25 47.10932 7.89119 36020 ft 509 kts 50°
2026-05-07 12:26 47.15114 7.97494 36026 ft 510 kts 57°
2026-05-07 12:26 47.18757 8.06418 36031 ft 509 kts 57°
2026-05-07 12:27 47.22517 8.15233 36029 ft 509 kts 56°
2026-05-07 12:27 47.26288 8.24051 36028 ft 509 kts 57°
2026-05-07 12:28 47.30636 8.32157 36027 ft 504 kts 40°
2026-05-07 12:28 47.36368 8.37949 36032 ft 498 kts 23°
2026-05-07 12:29 47.42653 8.42275 36038 ft 499 kts 22°
2026-05-07 12:29 47.48955 8.46591 36047 ft 500 kts 22°
2026-05-07 12:30 47.55197 8.50976 36050 ft 500 kts 23°
2026-05-07 12:30 47.61478 8.55451 36052 ft 501 kts 23°
2026-05-07 12:31 47.67762 8.59945 36036 ft 501 kts 23°
2026-05-07 12:31 47.74036 8.64438 36037 ft 500 kts 24°
2026-05-07 12:32 47.80294 8.68929 36017 ft 499 kts 24°
2026-05-07 12:32 47.86539 8.73423 36030 ft 499 kts 24°
2026-05-07 12:33 47.95905 8.80184 36029 ft 498 kts 24°
2026-05-07 12:33 48.02133 8.84696 36027 ft 497 kts 24°
2026-05-07 12:34 48.08357 8.89217 36040 ft 497 kts 24°
2026-05-07 12:34 48.14656 8.93487 36016 ft 496 kts 17°
2026-05-07 12:35 48.21299 8.96078 36022 ft 492 kts
2026-05-07 12:35 48.28042 8.97153 36028 ft 490 kts
2026-05-07 12:36 48.34688 8.98053 36023 ft 488 kts
2026-05-07 12:36 48.41395 8.99060 35923 ft 480 kts
2026-05-07 12:37 48.44687 8.99568 35629 ft 472 kts
2026-05-07 12:37 48.47945 9.00069 35001 ft 471 kts
2026-05-07 12:37 48.51217 9.00570 34247 ft 473 kts
2026-05-07 12:37 48.54499 9.01073 33393 ft 475 kts
2026-05-07 12:38 48.57791 9.01580 32493 ft 476 kts
2026-05-07 12:38 48.61096 9.02089 31599 ft 477 kts
2026-05-07 12:38 48.64406 9.02641 30727 ft 478 kts
2026-05-07 12:38 48.67685 9.03374 29986 ft 475 kts
2026-05-07 12:39 48.70932 9.04192 29232 ft 471 kts
2026-05-07 12:39 48.74156 9.05017 28370 ft 469 kts
2026-05-07 12:39 48.77377 9.05822 27499 ft 468 kts
2026-05-07 12:39 48.80584 9.06601 26730 ft 465 kts
2026-05-07 12:40 48.83765 9.07361 26063 ft 461 kts
2026-05-07 12:40 48.86917 9.08114 25444 ft 456 kts
2026-05-07 12:40 48.90041 9.08798 24841 ft 451 kts
2026-05-07 12:40 48.93146 9.09239 24235 ft 446 kts
2026-05-07 12:41 48.96231 9.09605 23630 ft 443 kts
2026-05-07 12:41 48.99292 9.10002 22931 ft 439 kts
2026-05-07 12:41 49.02322 9.10426 22262 ft 436 kts
2026-05-07 12:41 49.05332 9.10857 21627 ft 432 kts
2026-05-07 12:42 49.08274 9.11281 21006 ft 428 kts
2026-05-07 12:42 49.11232 9.11706 20400 ft 425 kts
2026-05-07 12:42 49.14164 9.12125 19789 ft 422 kts
2026-05-07 12:42 49.17072 9.12541 19230 ft 418 kts
2026-05-07 12:43 49.19955 9.12952 18710 ft 414 kts
2026-05-07 12:43 49.22811 9.13364 18151 ft 411 kts
2026-05-07 12:43 49.25650 9.13770 17529 ft 408 kts
2026-05-07 12:43 49.28464 9.14180 16942 ft 405 kts
2026-05-07 12:44 49.31238 9.14885 16369 ft 403 kts 10°
2026-05-07 12:44 49.33952 9.15877 15820 ft 400 kts 12°
2026-05-07 12:44 49.36634 9.16934 15302 ft 396 kts 13°
2026-05-07 12:44 49.39299 9.17965 14800 ft 393 kts 12°
2026-05-07 12:45 49.41945 9.18951 14314 ft 390 kts 12°
2026-05-07 12:45 49.44578 9.19904 13796 ft 387 kts 12°
2026-05-07 12:45 49.47200 9.20838 13237 ft 385 kts 11°
2026-05-07 12:45 49.49797 9.21760 12707 ft 381 kts 11°
2026-05-07 12:46 49.52372 9.22677 12187 ft 378 kts 11°
2026-05-07 12:46 49.54922 9.23586 11689 ft 375 kts 11°
2026-05-07 12:46 49.57460 9.24492 11183 ft 372 kts 11°
2026-05-07 12:46 49.59953 9.25384 10830 ft 364 kts 11°
2026-05-07 12:47 49.62388 9.26257 10623 ft 354 kts 11°
2026-05-07 12:47 49.64754 9.27103 10403 ft 344 kts 11°
2026-05-07 12:47 49.67048 9.27925 10204 ft 334 kts 11°
2026-05-07 12:47 49.69276 9.28726 10096 ft 322 kts 11°
2026-05-07 12:48 49.71417 9.29498 10026 ft 310 kts 11°
2026-05-07 12:48 49.73480 9.30241 9891 ft 300 kts 10°
2026-05-07 12:48 49.75501 9.30964 9616 ft 296 kts 10°
2026-05-07 12:48 49.77479 9.31674 9377 ft 289 kts 11°
2026-05-07 12:49 49.79387 9.32364 9176 ft 282 kts 10°
2026-05-07 12:49 49.81287 9.33048 8954 ft 279 kts 10°
2026-05-07 12:49 49.83167 9.33621 8716 ft 271 kts
2026-05-07 12:49 49.85024 9.33373 8531 ft 266 kts 348°
2026-05-07 12:50 49.86813 9.32643 8324 ft 267 kts 340°
2026-05-07 12:50 49.88581 9.31690 8140 ft 270 kts 339°
2026-05-07 12:50 49.90353 9.30695 7927 ft 271 kts 339°
2026-05-07 12:50 49.92116 9.29696 7728 ft 269 kts 339°
2026-05-07 12:51 49.93875 9.28693 7532 ft 269 kts 339°
2026-05-07 12:51 49.95626 9.27692 7336 ft 268 kts 339°
2026-05-07 12:51 49.97372 9.26690 7129 ft 267 kts 339°
2026-05-07 12:51 49.99113 9.25691 6919 ft 266 kts 339°
2026-05-07 12:52 50.00845 9.24697 6730 ft 265 kts 339°
2026-05-07 12:52 50.02567 9.23707 6519 ft 263 kts 339°
2026-05-07 12:52 50.04279 9.22723 6327 ft 261 kts 339°
2026-05-07 12:52 50.05981 9.21740 6139 ft 260 kts 339°
2026-05-07 12:53 50.07678 9.20749 5914 ft 260 kts 339°
2026-05-07 12:53 50.09369 9.19756 5704 ft 259 kts 339°
2026-05-07 12:53 50.10954 9.18539 5467 ft 253 kts 320°
2026-05-07 12:53 50.12007 9.16375 5258 ft 255 kts 293°
2026-05-07 12:54 50.12604 9.13741 5099 ft 261 kts 289°
2026-05-07 12:54 50.13161 9.11083 4998 ft 259 kts 289°
2026-05-07 12:54 50.13713 9.08422 4947 ft 258 kts 289°
2026-05-07 12:54 50.14270 9.05754 4939 ft 258 kts 289°
2026-05-07 12:55 50.14818 9.03086 4919 ft 259 kts 289°
2026-05-07 12:55 50.15254 9.00404 4900 ft 253 kts 274°
2026-05-07 12:55 50.14993 8.97658 4949 ft 261 kts 256°
2026-05-07 12:55 50.14457 8.94924 4947 ft 265 kts 253°
2026-05-07 12:56 50.13847 8.92218 4923 ft 264 kts 251°
2026-05-07 12:56 50.13212 8.89546 4922 ft 262 kts 252°
2026-05-07 12:56 50.12793 8.87794 4925 ft 259 kts 251°
2026-05-07 12:56 50.12175 8.85217 4914 ft 247 kts 251°
2026-05-07 12:57 50.11582 8.82737 4596 ft 242 kts 252°
2026-05-07 12:57 50.11010 8.80338 4257 ft 230 kts 252°
2026-05-07 12:57 50.10474 8.78077 3945 ft 215 kts 252°
2026-05-07 12:57 50.09969 8.75959 3697 ft 202 kts 252°
2026-05-07 12:58 50.09494 8.73967 3365 ft 191 kts 252°
2026-05-07 12:58 50.09039 8.72056 3095 ft 185 kts 252°
2026-05-07 12:58 50.08590 8.70168 2836 ft 187 kts 252°
2026-05-07 12:58 50.08136 8.68270 2561 ft 186 kts 252°
2026-05-07 12:59 50.07690 8.66391 2302 ft 184 kts 251°
2026-05-07 12:59 50.07252 8.64555 2048 ft 175 kts 252°
2026-05-07 12:59 50.06837 8.62818 1767 ft 166 kts 252°
2026-05-07 12:59 50.06447 8.61182 1562 ft 157 kts 252°
2026-05-07 13:00 50.06076 8.59627 1303 ft 149 kts 252°
2026-05-07 13:00 50.05728 8.58167 1092 ft 140 kts 251°
2026-05-07 13:00 50.05390 8.56748 906 ft 141 kts 250°
2026-05-07 13:00 50.05043 8.55298 705 ft 145 kts 249°
2026-05-07 13:01 50.04691 8.53831 473 ft 144 kts 249°
2026-05-07 13:01 50.04349 8.52401 358 ft 133 kts 249°
2026-05-07 13:01 50.04075 8.51248 330 ft 88 kts 249°
2026-05-07 13:01 50.03926 8.50628 326 ft 37 kts 249°
2026-05-07 13:02 50.03798 8.50324 322 ft 30 kts 221°
2026-05-07 13:02 50.03686 8.50186 321 ft 14 kts 205°
2026-05-07 13:02 50.03625 8.50267 326 ft 15 kts 82°
2026-05-07 13:02 50.03664 8.50436 331 ft 20 kts 70°
2026-05-07 13:03 50.03712 8.50636 331 ft 20 kts 70°
2026-05-07 13:03 50.03760 8.50836 334 ft 20 kts 69°
2026-05-07 13:03 50.03808 8.51035 337 ft 20 kts 69°
2026-05-07 13:03 50.03855 8.51234 336 ft 20 kts 69°
2026-05-07 13:04 50.03903 8.51436 338 ft 20 kts 70°
2026-05-07 13:04 50.03951 8.51636 351 ft 20 kts 69°
2026-05-07 13:04 50.04000 8.51835 351 ft 20 kts 69°
2026-05-07 13:04 50.04047 8.52035 348 ft 20 kts 70°
2026-05-07 13:05 50.04094 8.52235 353 ft 20 kts 69°
2026-05-07 13:05 50.04142 8.52432 358 ft 20 kts 69°
2026-05-07 13:05 50.04190 8.52632 363 ft 20 kts 70°
2026-05-07 13:05 50.04238 8.52831 362 ft 20 kts 69°
2026-05-07 13:06 50.04285 8.53031 365 ft 20 kts 70°
2026-05-07 13:06 50.04333 8.53230 370 ft 20 kts 70°
2026-05-07 13:06 50.04381 8.53430 378 ft 20 kts 70°
2026-05-07 13:06 50.04403 8.53639 380 ft 20 kts 84°
2026-05-07 13:07 50.04418 8.53851 380 ft 20 kts 84°
2026-05-07 13:07 50.04431 8.54063 380 ft 20 kts 84°
2026-05-07 13:07 50.04445 8.54274 380 ft 20 kts 84°
2026-05-07 13:07 50.04448 8.54492 375 ft 20 kts 100°
2026-05-07 13:08 50.04387 8.54684 371 ft 21 kts 132°
2026-05-07 13:08 50.04271 8.54794 364 ft 18 kts 160°
2026-05-07 13:08 50.04144 8.54866 362 ft 20 kts 160°
2026-05-07 13:08 50.04016 8.54941 366 ft 20 kts 159°
2026-05-07 13:09 50.03894 8.55014 363 ft 14 kts 160°
2026-05-07 13:09 50.03839 8.55094 362 ft 11 kts 82°
2026-05-07 13:09 50.03872 8.55214 363 ft 16 kts 69°
2026-05-07 13:09 50.03920 8.55415 359 ft 21 kts 69°
2026-05-07 13:10 50.03971 8.55629 361 ft 21 kts 70°
2026-05-07 13:10 50.04023 8.55843 359 ft 21 kts 70°
2026-05-07 13:10 50.04074 8.56057 363 ft 21 kts 69°
2026-05-07 13:10 50.04125 8.56271 364 ft 21 kts 70°
2026-05-07 13:11 50.04176 8.56485 365 ft 21 kts 70°
2026-05-07 13:11 50.04221 8.56673 368 ft 21 kts 70°
2026-05-07 13:11 50.04268 8.56870 368 ft 21 kts 70°
2026-05-07 13:11 50.04319 8.57084 372 ft 21 kts 69°
2026-05-07 13:12 50.04371 8.57298 371 ft 21 kts 69°
2026-05-07 13:12 50.04422 8.57513 368 ft 21 kts 70°
2026-05-07 13:12 50.04471 8.57720 374 ft 21 kts 69°
2026-05-07 13:12 50.04522 8.57934 370 ft 21 kts 70°
2026-05-07 13:13 50.04573 8.58145 373 ft 21 kts 70°
2026-05-07 13:13 50.04624 8.58359 374 ft 21 kts 69°
2026-05-07 13:13 50.04675 8.58573 377 ft 21 kts 70°
2026-05-07 13:13 50.04714 8.58726 373 ft 12 kts 65°
2026-05-07 13:14 50.04785 8.58742 375 ft 13 kts 340°
2026-05-07 13:14 50.04873 8.58692 372 ft 16 kts 339°
2026-05-07 13:14 50.04961 8.58744 368 ft 15 kts 51°
2026-05-07 13:14 50.05047 8.58757 368 ft 7 kts 340°
2026-05-07 13:15 50.05064 8.58747 370 ft 2 kts 340°
2026-05-07 13:15 50.05068 8.58745 370 ft 0 kts 340°